Time,TemperatureF,DewpointF,PressureIn,WindDirection,WindDirectionDegrees,WindSpeedMPH,WindSpeedGustMPH,Humidity,HourlyPrecipIn,Conditions,Clouds,dailyrainin,SoftwareType,DateUTC
2013-03-24 00:00:00,49.1,46.6,29.81,NNE,22,0.0,3.0,91,0.00,,---,0.01,VWS V14.00,2013-03-24 04:00:00,
2013-03-24 00:10:00,49.1,46.6,29.84,NNE,22,0.0,2.0,91,0.04,,---,0.02,VWS V14.00,2013-03-24 04:10:00,
2013-03-24 00:20:00,48.9,46.7,29.85,North,0,0.0,4.0,92,0.20,,---,0.04,VWS V14.00,2013-03-24 04:20:00,
2013-03-24 00:30:00,48.7,46.8,29.85,North,0,0.0,2.0,93,0.25,,---,0.08,VWS V14.00,2013-03-24 04:30:00,
2013-03-24 00:40:00,48.5,46.6,29.83,North,0,0.0,1.0,93,0.50,,---,0.14,VWS V14.00,2013-03-24 04:40:00,
2013-03-24 00:50:00,48.3,46.4,29.81,North,0,0.0,1.0,93,0.56,,---,0.20,VWS V14.00,2013-03-24 04:50:00,
2013-03-24 01:00:00,48.1,46.5,29.82,North,0,0.0,0.0,94,0.66,,---,0.30,VWS V14.00,2013-03-24 05:00:00,
2013-03-24 01:10:00,48.1,46.7,29.82,North,0,0.0,0.0,95,0.62,,---,0.36,VWS V14.00,2013-03-24 05:10:00,
2013-03-24 01:20:00,48.0,46.6,29.81,North,0,0.0,1.0,95,0.37,,---,0.41,VWS V14.00,2013-03-24 05:20:00,
2013-03-24 01:30:00,47.9,46.5,29.82,NNE,22,1.0,5.0,95,0.33,,---,0.46,VWS V14.00,2013-03-24 05:30:00,
2013-03-24 01:40:00,47.8,46.7,29.80,SE,135,0.0,2.0,96,0.39,,---,0.51,VWS V14.00,2013-03-24 05:40:00,
2013-03-24 01:50:00,47.7,46.6,29.78,SE,135,0.0,2.0,96,0.33,,---,0.56,VWS V14.00,2013-03-24 05:50:00,
2013-03-24 02:00:00,47.7,46.6,29.78,SE,135,0.0,0.0,96,0.37,,---,0.61,VWS V14.00,2013-03-24 06:00:00,
2013-03-24 02:10:00,47.7,46.6,29.76,SE,135,0.0,0.0,96,0.28,,---,0.64,VWS V14.00,2013-03-24 06:10:00,
2013-03-24 02:20:00,47.7,46.6,29.75,SE,135,0.0,1.0,96,0.21,,---,0.67,VWS V14.00,2013-03-24 06:20:00,
2013-03-24 02:30:00,47.7,46.6,29.74,SE,135,0.0,0.0,96,0.25,,---,0.71,VWS V14.00,2013-03-24 06:30:00,
2013-03-24 02:40:00,47.7,46.6,29.73,SE,135,0.0,0.0,96,0.25,,---,0.73,VWS V14.00,2013-03-24 06:40:00,
2013-03-24 02:50:00,47.8,47.0,29.73,SE,135,0.0,4.0,97,0.12,,---,0.75,VWS V14.00,2013-03-24 06:50:00,
2013-03-24 03:00:00,47.9,47.1,29.73,ESE,112,1.0,8.0,97,0.11,,---,0.76,VWS V14.00,2013-03-24 07:00:00,
2013-03-24 03:10:00,48.1,47.3,29.72,SE,135,1.0,6.0,97,0.17,,---,0.79,VWS V14.00,2013-03-24 07:10:00,
2013-03-24 03:20:00,48.5,47.7,29.72,SSE,158,1.0,6.0,97,0.17,,---,0.81,VWS V14.00,2013-03-24 07:20:00,
2013-03-24 03:30:00,48.8,48.0,29.66,ENE,68,0.0,4.0,97,0.16,,---,0.83,VWS V14.00,2013-03-24 07:30:00,
2013-03-24 03:40:00,49.0,48.2,29.66,ENE,68,0.0,2.0,97,0.22,,---,0.85,VWS V14.00,2013-03-24 07:40:00,
2013-03-24 03:50:00,49.0,48.2,29.67,ENE,68,0.0,0.0,97,0.04,,---,0.85,VWS V14.00,2013-03-24 07:50:00,
2013-03-24 04:00:00,48.9,48.1,29.66,ENE,68,0.0,1.0,97,0.00,,---,0.85,VWS V14.00,2013-03-24 08:00:00,
2013-03-24 04:10:00,49.0,48.2,29.65,ENE,68,0.0,2.0,97,0.09,,---,0.87,VWS V14.00,2013-03-24 08:10:00,
2013-03-24 04:20:00,49.1,48.3,29.62,ENE,68,0.0,2.0,97,0.25,,---,0.90,VWS V14.00,2013-03-24 08:20:00,
2013-03-24 04:30:00,49.2,48.4,29.64,NE,45,0.0,2.0,97,0.15,,---,0.91,VWS V14.00,2013-03-24 08:30:00,
2013-03-24 04:40:00,49.2,48.4,29.64,NE,45,0.0,1.0,97,0.24,,---,0.94,VWS V14.00,2013-03-24 08:40:00,
2013-03-24 04:50:00,49.5,48.7,29.64,NE,45,0.0,0.0,97,0.30,,---,0.98,VWS V14.00,2013-03-24 08:50:00,
2013-03-24 05:00:00,49.6,48.8,29.64,NE,45,0.0,1.0,97,0.28,,---,1.02,VWS V14.00,2013-03-24 09:00:00,
2013-03-24 05:10:00,49.9,49.4,29.66,NE,45,0.0,5.0,98,0.70,,---,1.09,VWS V14.00,2013-03-24 09:10:00,
2013-03-24 05:20:00,50.1,49.6,29.64,WNW,292,0.0,4.0,98,0.76,,---,1.17,VWS V14.00,2013-03-24 09:20:00,
2013-03-24 05:30:00,50.1,49.6,29.64,NE,45,0.0,3.0,98,0.75,,---,1.26,VWS V14.00,2013-03-24 09:30:00,
2013-03-24 05:40:00,50.3,49.8,29.68,South,180,0.0,3.0,98,0.50,,---,1.32,VWS V14.00,2013-03-24 09:40:00,
2013-03-24 05:50:00,50.3,49.8,29.67,WSW,248,0.0,2.0,98,0.68,,---,1.40,VWS V14.00,2013-03-24 09:50:00,
2013-03-24 06:00:00,50.3,49.8,29.67,WSW,248,0.0,2.0,98,0.47,,---,1.47,VWS V14.00,2013-03-24 10:00:00,
2013-03-24 06:10:00,50.2,49.7,29.67,West,270,0.0,4.0,98,0.55,,---,1.54,VWS V14.00,2013-03-24 10:10:00,
2013-03-24 06:20:00,50.1,49.6,29.65,West,270,0.0,1.0,98,0.49,,---,1.58,VWS V14.00,2013-03-24 10:20:00,
2013-03-24 06:30:00,50.1,49.6,29.63,West,270,0.0,0.0,98,0.31,,---,1.62,VWS V14.00,2013-03-24 10:30:00,
2013-03-24 06:40:00,50.0,49.5,29.61,West,270,0.0,1.0,98,0.19,,---,1.63,VWS V14.00,2013-03-24 10:40:00,
2013-03-24 06:50:00,49.9,49.4,29.62,West,270,0.0,0.0,98,0.00,,---,1.63,VWS V14.00,2013-03-24 10:50:00,
2013-03-24 07:00:00,49.8,49.3,29.62,West,270,0.0,1.0,98,0.00,,---,1.63,VWS V14.00,2013-03-24 11:00:00,
2013-03-24 07:10:00,49.8,49.3,29.63,West,270,0.0,2.0,98,0.00,,---,1.64,VWS V14.00,2013-03-24 11:10:00,
2013-03-24 07:20:00,49.7,48.9,29.62,West,270,0.0,1.0,97,0.09,,---,1.65,VWS V14.00,2013-03-24 11:20:00,
2013-03-24 07:30:00,49.7,48.9,29.62,West,270,0.0,1.0,97,0.09,,---,1.66,VWS V14.00,2013-03-24 11:30:00,
2013-03-24 07:40:00,49.7,48.9,29.63,West,270,0.0,0.0,97,0.05,,---,1.67,VWS V14.00,2013-03-24 11:40:00,
2013-03-24 07:50:00,49.7,49.2,29.63,West,270,0.0,0.0,98,0.05,,---,1.67,VWS V14.00,2013-03-24 11:50:00,
2013-03-24 08:00:00,49.7,49.2,29.62,West,270,0.0,0.0,98,0.05,,---,1.68,VWS V14.00,2013-03-24 12:00:00,
2013-03-24 08:10:00,49.7,49.2,29.62,West,270,0.0,0.0,98,0.10,,---,1.69,VWS V14.00,2013-03-24 12:10:00,
2013-03-24 08:20:00,49.8,49.3,29.62,West,270,0.0,0.0,98,0.07,,---,1.70,VWS V14.00,2013-03-24 12:20:00,
2013-03-24 08:30:00,49.9,49.4,29.62,West,270,0.0,0.0,98,0.07,,---,1.71,VWS V14.00,2013-03-24 12:30:00,
2013-03-24 08:40:00,49.9,49.4,29.62,West,270,0.0,0.0,98,0.04,,---,1.71,VWS V14.00,2013-03-24 12:40:00,
2013-03-24 08:50:00,50.2,49.7,29.62,West,270,0.0,0.0,98,0.04,,---,1.72,VWS V14.00,2013-03-24 12:50:00,
2013-03-24 09:00:00,50.3,49.8,29.62,West,270,0.0,2.0,98,0.00,,---,1.72,VWS V14.00,2013-03-24 13:00:00,
2013-03-24 09:10:00,50.4,49.9,29.62,West,270,0.0,0.0,98,0.00,,---,1.73,VWS V14.00,2013-03-24 13:10:00,
2013-03-24 09:20:00,50.4,49.9,29.62,West,270,0.0,0.0,98,0.00,,---,1.73,VWS V14.00,2013-03-24 13:20:00,
2013-03-24 09:30:00,50.4,49.9,29.62,West,270,0.0,0.0,98,0.00,,---,1.73,VWS V14.00,2013-03-24 13:30:00,
2013-03-24 09:40:00,50.6,50.1,29.62,West,270,0.0,0.0,98,0.00,,---,1.73,VWS V14.00,2013-03-24 13:40:00,
2013-03-24 09:50:00,50.8,50.3,29.63,West,270,0.0,2.0,98,0.00,,---,1.73,VWS V14.00,2013-03-24 13:50:00,
2013-03-24 10:00:00,51.0,50.5,29.64,NE,45,0.0,1.0,98,0.00,,---,1.73,VWS V14.00,2013-03-24 14:00:00,
2013-03-24 10:10:00,51.5,51.0,29.63,NE,45,0.0,1.0,98,0.00,,---,1.73,VWS V14.00,2013-03-24 14:10:00,
2013-03-24 10:20:00,52.1,51.8,29.62,ENE,68,0.0,1.0,99,0.00,,---,1.73,VWS V14.00,2013-03-24 14:20:00,
2013-03-24 10:30:00,52.5,52.0,29.62,East,90,0.0,2.0,98,0.00,,---,1.73,VWS V14.00,2013-03-24 14:30:00,
2013-03-24 10:40:00,53.1,52.8,29.63,SSE,158,2.0,7.0,99,0.00,,---,1.73,VWS V14.00,2013-03-24 14:40:00,
2013-03-24 10:50:00,53.8,53.5,29.64,South,180,1.0,6.0,99,0.00,,---,1.73,VWS V14.00,2013-03-24 14:50:00,
2013-03-24 11:00:00,54.1,53.8,29.63,South,180,2.0,7.0,99,0.00,,---,1.73,VWS V14.00,2013-03-24 15:00:00,
2013-03-24 11:10:00,54.3,54.0,29.62,SSE,158,3.0,9.0,99,0.00,,---,1.73,VWS V14.00,2013-03-24 15:10:00,
2013-03-24 11:20:00,54.5,54.5,29.63,South,180,2.0,8.0,100,0.00,,---,1.73,VWS V14.00,2013-03-24 15:20:00,
2013-03-24 11:30:00,54.4,53.0,29.62,South,180,3.0,9.0,95,0.00,,---,1.73,VWS V14.00,2013-03-24 15:30:00,
2013-03-24 11:40:00,54.6,52.9,29.61,SSE,158,3.0,8.0,94,0.00,,---,1.73,VWS V14.00,2013-03-24 15:40:00,
2013-03-24 11:50:00,55.0,53.0,29.60,SSE,158,3.0,9.0,93,0.00,,---,1.73,VWS V14.00,2013-03-24 15:50:00,
2013-03-24 12:00:00,55.1,53.1,29.60,SSE,158,3.0,8.0,93,0.00,,---,1.73,VWS V14.00,2013-03-24 16:00:00,
2013-03-24 12:10:00,55.7,53.4,29.60,SSE,158,2.0,10.0,92,0.00,,---,1.73,VWS V14.00,2013-03-24 16:10:00,
2013-03-24 12:20:00,56.4,52.9,29.60,South,180,3.0,8.0,88,0.00,,---,1.73,VWS V14.00,2013-03-24 16:20:00,
2013-03-24 12:30:00,56.9,53.1,29.58,South,180,4.0,9.0,87,0.00,,---,1.73,VWS V14.00,2013-03-24 16:30:00,
2013-03-24 12:40:00,57.7,53.2,29.58,SE,135,4.0,12.0,85,0.00,,---,1.73,VWS V14.00,2013-03-24 16:40:00,
2013-03-24 12:50:00,57.9,53.4,29.57,South,180,3.0,9.0,85,0.00,,---,1.73,VWS V14.00,2013-03-24 16:50:00,
2013-03-24 13:00:00,58.2,53.7,29.57,South,180,4.0,12.0,85,0.00,,---,1.73,VWS V14.00,2013-03-24 17:00:00,
2013-03-24 13:10:00,58.5,53.4,29.58,South,180,4.0,12.0,83,0.00,,---,1.73,VWS V14.00,2013-03-24 17:10:00,
2013-03-24 13:20:00,58.8,52.7,29.58,SSW,202,4.0,12.0,80,0.00,,---,1.73,VWS V14.00,2013-03-24 17:20:00,
2013-03-24 13:30:00,59.3,53.5,29.58,SSW,202,4.0,15.0,81,0.00,,---,1.73,VWS V14.00,2013-03-24 17:30:00,
2013-03-24 13:40:00,59.2,52.3,29.58,SSW,202,4.0,10.0,78,0.00,,---,1.73,VWS V14.00,2013-03-24 17:40:00,
2013-03-24 13:50:00,58.7,51.9,29.58,SSW,202,4.0,10.0,78,0.00,,---,1.73,VWS V14.00,2013-03-24 17:50:00,
2013-03-24 14:00:00,58.0,52.2,29.57,South,180,4.0,9.0,81,0.00,,---,1.73,VWS V14.00,2013-03-24 18:00:00,
2013-03-24 14:10:00,58.6,52.1,29.56,South,180,4.0,12.0,79,0.00,,---,1.73,VWS V14.00,2013-03-24 18:10:00,
2013-03-24 14:20:00,58.4,51.2,29.55,SSW,202,5.0,11.0,77,0.00,,---,1.73,VWS V14.00,2013-03-24 18:20:00,
2013-03-24 14:30:00,57.8,51.3,29.56,SSW,202,4.0,10.0,79,0.00,,---,1.73,VWS V14.00,2013-03-24 18:30:00,
2013-03-24 14:40:00,57.9,51.4,29.55,South,180,4.0,8.0,79,0.00,,---,1.73,VWS V14.00,2013-03-24 18:40:00,
2013-03-24 14:50:00,58.1,50.9,29.54,South,180,3.0,8.0,77,0.00,,---,1.73,VWS V14.00,2013-03-24 18:50:00,
2013-03-24 15:00:00,57.8,51.3,29.53,SSW,202,3.0,9.0,79,0.00,,---,1.73,VWS V14.00,2013-03-24 19:00:00,
2013-03-24 15:10:00,57.1,50.7,29.53,South,180,4.0,11.0,79,0.00,,---,1.73,VWS V14.00,2013-03-24 19:10:00,
2013-03-24 15:20:00,56.4,50.3,29.53,SSW,202,4.0,10.0,80,0.00,,---,1.73,VWS V14.00,2013-03-24 19:20:00,
2013-03-24 15:30:00,55.9,50.2,29.53,SSW,202,4.0,16.0,81,0.00,,---,1.73,VWS V14.00,2013-03-24 19:30:00,
2013-03-24 15:40:00,55.9,50.2,29.53,South,180,5.0,16.0,81,0.00,,---,1.73,VWS V14.00,2013-03-24 19:40:00,
2013-03-24 15:50:00,55.5,49.8,29.53,SSW,202,5.0,12.0,81,0.00,,---,1.73,VWS V14.00,2013-03-24 19:50:00,
2013-03-24 16:00:00,55.4,49.7,29.52,South,180,4.0,11.0,81,0.00,,---,1.73,VWS V14.00,2013-03-24 20:00:00,
2013-03-24 16:10:00,55.1,49.7,29.51,SSE,158,5.0,13.0,82,0.00,,---,1.73,VWS V14.00,2013-03-24 20:10:00,
2013-03-24 16:20:00,54.9,49.8,29.50,South,180,4.0,14.0,83,0.00,,---,1.73,VWS V14.00,2013-03-24 20:20:00,
2013-03-24 16:30:00,54.7,49.7,29.49,SSW,202,5.0,12.0,83,0.00,,---,1.73,VWS V14.00,2013-03-24 20:30:00,
2013-03-24 16:40:00,54.7,49.7,29.50,South,180,4.0,11.0,83,0.00,,---,1.73,VWS V14.00,2013-03-24 20:40:00,
2013-03-24 16:50:00,54.4,49.3,29.49,SSW,202,6.0,19.0,83,0.00,,---,1.73,VWS V14.00,2013-03-24 20:50:00,
2013-03-24 17:00:00,54.4,49.7,29.48,South,180,5.0,12.0,84,0.00,,---,1.73,VWS V14.00,2013-03-24 21:00:00,
2013-03-24 17:10:00,54.3,49.6,29.48,South,180,3.0,9.0,84,0.00,,---,1.73,VWS V14.00,2013-03-24 21:10:00,
2013-03-24 17:20:00,54.2,49.2,29.47,SSE,158,4.0,12.0,83,0.00,,---,1.73,VWS V14.00,2013-03-24 21:20:00,
2013-03-24 17:30:00,53.8,49.1,29.47,SSE,158,4.0,12.0,84,0.00,,---,1.73,VWS V14.00,2013-03-24 21:30:00,
2013-03-24 17:40:00,53.1,49.3,29.47,South,180,3.0,10.0,87,0.00,,---,1.73,VWS V14.00,2013-03-24 21:40:00,
2013-03-24 17:50:00,52.4,49.3,29.46,South,180,3.0,9.0,89,0.28,,---,1.76,VWS V14.00,2013-03-24 21:50:00,
2013-03-24 18:00:00,51.5,49.3,29.47,SSW,202,3.0,10.0,92,0.53,,---,1.83,VWS V14.00,2013-03-24 22:00:00,
2013-03-24 18:10:00,51.3,49.3,29.48,SSW,202,2.0,8.0,93,0.41,,---,1.88,VWS V14.00,2013-03-24 22:10:00,
2013-03-24 18:20:00,51.3,49.6,29.51,SW,225,1.0,6.0,94,0.50,,---,1.95,VWS V14.00,2013-03-24 22:20:00,
2013-03-24 18:30:00,51.3,49.9,29.52,SW,225,1.0,7.0,95,0.42,,---,1.97,VWS V14.00,2013-03-24 22:30:00,
2013-03-24 18:40:00,51.3,49.9,29.52,SSW,202,1.0,4.0,95,0.04,,---,1.97,VWS V14.00,2013-03-24 22:40:00,
2013-03-24 18:50:00,51.5,49.5,29.53,SSW,202,3.0,11.0,93,0.00,,---,1.97,VWS V14.00,2013-03-24 22:50:00,
2013-03-24 19:00:00,51.6,49.1,29.54,WSW,248,2.0,11.0,91,0.00,,---,1.97,VWS V14.00,2013-03-24 23:00:00,
2013-03-24 19:10:00,51.5,48.7,29.54,SW,225,1.0,6.0,90,0.00,,---,1.97,VWS V14.00,2013-03-24 23:10:00,
2013-03-24 19:20:00,51.3,48.5,29.55,WSW,248,1.0,5.0,90,0.00,,---,1.97,VWS V14.00,2013-03-24 23:20:00,
2013-03-24 19:30:00,50.9,47.8,29.55,NW,315,1.0,4.0,89,0.00,,---,1.97,VWS V14.00,2013-03-24 23:30:00,
2013-03-24 19:40:00,50.5,46.5,29.55,WSW,248,1.0,6.0,86,0.00,,---,1.97,VWS V14.00,2013-03-24 23:40:00,
2013-03-24 19:50:00,50.4,45.8,29.55,SSW,202,2.0,9.0,84,0.00,,---,1.97,VWS V14.00,2013-03-24 23:50:00,
2013-03-24 20:00:00,50.4,45.4,29.56,SSW,202,3.0,9.0,83,0.00,,---,1.97,VWS V14.00,2013-03-25 00:00:00,
2013-03-24 20:10:00,50.3,45.0,29.56,South,180,2.0,13.0,82,0.00,,---,1.97,VWS V14.00,2013-03-25 00:10:00,
2013-03-24 20:20:00,50.0,44.7,29.57,WSW,248,1.0,14.0,82,0.00,,---,1.97,VWS V14.00,2013-03-25 00:20:00,
2013-03-24 20:30:00,50.2,44.0,29.57,WSW,248,3.0,14.0,79,0.00,,---,1.97,VWS V14.00,2013-03-25 00:30:00,
2013-03-24 20:40:00,50.2,44.0,29.58,SSW,202,3.0,11.0,79,0.00,,---,1.97,VWS V14.00,2013-03-25 00:40:00,
2013-03-24 20:50:00,50.0,42.7,29.60,WSW,248,3.0,8.0,76,0.00,,---,1.97,VWS V14.00,2013-03-25 00:50:00,
2013-03-24 21:00:00,48.6,38.9,29.62,West,270,7.0,15.0,69,0.00,,---,1.97,VWS V14.00,2013-03-25 01:00:00,
2013-03-24 21:10:00,47.3,37.3,29.63,WSW,248,6.0,19.0,68,0.00,,---,1.97,VWS V14.00,2013-03-25 01:10:00,
2013-03-24 21:20:00,46.5,36.2,29.64,WSW,248,4.0,13.0,67,0.00,,---,1.97,VWS V14.00,2013-03-25 01:20:00,
2013-03-24 21:30:00,45.8,36.2,29.64,WSW,248,4.0,13.0,69,0.00,,---,1.97,VWS V14.00,2013-03-25 01:30:00,
2013-03-24 21:40:00,45.2,34.9,29.66,West,270,4.0,14.0,67,0.00,,---,1.97,VWS V14.00,2013-03-25 01:40:00,
2013-03-24 21:50:00,44.9,35.0,29.67,WSW,248,2.0,11.0,68,0.00,,---,1.97,VWS V14.00,2013-03-25 01:50:00,
2013-03-24 22:00:00,44.6,34.3,29.68,West,270,5.0,18.0,67,0.00,,---,1.97,VWS V14.00,2013-03-25 02:00:00,
2013-03-24 22:10:00,44.3,34.0,29.68,WSW,248,5.0,18.0,67,0.00,,---,1.97,VWS V14.00,2013-03-25 02:10:00,
2013-03-24 22:20:00,44.0,33.8,29.68,West,270,4.0,12.0,67,0.00,,---,1.97,VWS V14.00,2013-03-25 02:20:00,
2013-03-24 22:30:00,43.9,34.0,29.68,WSW,248,4.0,15.0,68,0.00,,---,1.97,VWS V14.00,2013-03-25 02:30:00,
2013-03-24 22:40:00,43.7,33.8,29.69,WSW,248,4.0,10.0,68,0.00,,---,1.97,VWS V14.00,2013-03-25 02:40:00,
2013-03-24 22:50:00,43.6,34.5,29.69,SW,225,3.0,14.0,70,0.00,,---,1.97,VWS V14.00,2013-03-25 02:50:00,
2013-03-24 23:00:00,43.4,33.9,29.69,West,270,5.0,18.0,69,0.00,,---,1.97,VWS V14.00,2013-03-25 03:00:00,
2013-03-24 23:10:00,43.3,33.5,29.70,WSW,248,4.0,12.0,68,0.00,,---,1.97,VWS V14.00,2013-03-25 03:10:00,
2013-03-24 23:20:00,43.2,33.4,29.69,WSW,248,4.0,11.0,68,0.00,,---,1.97,VWS V14.00,2013-03-25 03:20:00,
2013-03-24 23:30:00,43.1,33.6,29.70,WSW,248,3.0,16.0,69,0.00,,---,1.97,VWS V14.00,2013-03-25 03:30:00,
2013-03-24 23:40:00,42.9,34.2,29.70,WNW,292,2.0,10.0,71,0.00,,---,1.97,VWS V14.00,2013-03-25 03:40:00,
2013-03-24 23:50:00,42.7,34.0,29.70,SW,225,1.0,8.0,71,0.00,,---,1.97,VWS V14.00,2013-03-25 03:50:00,